Content
SEND FEEDBACK

Daily
Averages
Monthly
Summary
United States of America

CLARKSVILLE, TEXAS


Home > North America > United States > Texas
Elevation: 432 feet     Latitude: 33 38N     Longitude: 095 02W

WEATHER
 
SELECT A DAY
Number of Records: 273,231;   Date Range: 7/10/03 - 8/29/14
 
SHARE

PRINT THIS DATA

[ ← Previous Day ]
WEATHER ALMANAC - FEBRUARY 13, 2013
[ Next Day → ]
[ °C ]   °F
Weather ElementAverageHighLow
Temperature43.6 °F53.6 °F (3:15 pm)37.4 °F (4:55 am)
Dewpoint36.1 °F41 °F (12:35 am)33.8 °F (10:55 pm)
Humidity76.4 %93 % (12:35 am)51 % (3:15 pm)
Barometer30.05 in30.14 in (10:35 am)29.97 in (12:35 am)
Wind Speed4.3 mph12.7 mph (1:15 am)
Wind Gust20.7 mph (2:55 am)
Weather ElementAverage
Visibility10 mi
Wind DirectionSSW (213.6 °)

Weather ElementTotal
Precipitation---
Heating Degree Days19.5 (Base 65)
Averaged from 70 records on February 13, 2013
WEATHER CONDITIONS BREAKOUT
WIND DIRECTION BREAKOUT
WEATHER BY HOUR - FEBRUARY 13, 2013
[ °C ]   °F
Local TimeTemperatureDewpointHumidityBarometerVisibilityWind DirectionWind SpeedGust SpeedPrecipitationEventsConditions
12:35 AM42.8 °F41.0 °F93 %29.97 in10.0 miWNW (300°)6.9 mphOvercast
12:55 AM42.8 °F41.0 °F93 %29.97 in10.0 miNW (310°)4.6 mphOvercast
1:15 AM42.8 °F41.0 °F93 %29.97 in10.0 miNW (310°)12.7 mph16.1 mphOvercast
1:35 AM42.8 °F39.2 °F87 %29.98 in10.0 miNW (310°)6.9 mph11.5 mphMostly Cloudy
1:55 AM41.0 °F39.2 °F93 %29.98 in10.0 miWNW (300°)5.8 mphOvercast
2:15 AM41.0 °F37.4 °F87 %29.98 in10.0 miWNW (300°)8.1 mphOvercast
2:35 AM41.0 °F37.4 °F87 %29.98 in10.0 miNW (310°)6.9 mphOvercast
2:55 AM41.0 °F37.4 °F87 %30.00 in10.0 miNW (310°)9.2 mph20.7 mphOvercast
3:15 AM41.0 °F37.4 °F87 %30.00 in10.0 miWNW (300°)6.9 mphOvercast
3:35 AM41.0 °F37.4 °F87 %30.00 in10.0 miNW (310°)5.8 mph16.1 mphOvercast
3:55 AM41.0 °F35.6 °F81 %30.01 in10.0 miNW (310°)12.7 mph19.6 mphOvercast
4:15 AM41.0 °F35.6 °F81 %30.01 in10.0 miWNW (300°)4.6 mphOvercast
4:35 AM39.2 °F35.6 °F87 %30.02 in10.0 miWNW (300°)4.6 mphOvercast
4:55 AM37.4 °F35.6 °F93 %30.03 in10.0 miWNW (290°)4.6 mphScattered Clouds
5:15 AM37.4 °F35.6 °F93 %30.04 in10.0 miWNW (290°)6.9 mphScattered Clouds
5:35 AM39.2 °F35.6 °F87 %30.05 in10.0 miNW (310°)9.2 mphMostly Cloudy
5:55 AM39.2 °F35.6 °F87 %30.06 in10.0 miNW (310°)6.9 mphOvercast
6:15 AM39.2 °F35.6 °F87 %30.06 in10.0 miWNW (300°)4.6 mphOvercast
6:35 AM39.2 °F35.6 °F87 %30.06 in10.0 miWNW (300°)4.6 mphOvercast
6:55 AM39.2 °F35.6 °F87 %30.07 in10.0 miWNW (290°)3.5 mphOvercast
7:15 AM39.2 °F35.6 °F87 %30.07 in10.0 miWNW (290°)4.6 mphOvercast
7:35 AM39.2 °F35.6 °F87 %30.08 in10.0 miWNW (290°)5.8 mphOvercast
7:55 AM39.2 °F35.6 °F87 %30.09 in10.0 miWNW (300°)5.8 mphOvercast
8:15 AM39.2 °F35.6 °F87 %30.10 in10.0 miWNW (290°)5.8 mphOvercast
8:35 AM41.0 °F35.6 °F81 %30.10 in10.0 miWNW (300°)5.8 mphOvercast
8:55 AM41.0 °F35.6 °F81 %30.11 in10.0 miWNW (300°)8.1 mphOvercast
9:15 AM41.0 °F35.6 °F81 %30.12 in10.0 miNW (310°)6.9 mphOvercast
9:35 AM41.0 °F35.6 °F81 %30.13 in10.0 miWNW (290°)4.6 mphOvercast
9:55 AM41.0 °F35.6 °F81 %30.13 in10.0 miWNW (300°)4.6 mphOvercast
10:15 AM41.0 °F35.6 °F81 %30.13 in10.0 miNW (310°)8.1 mphOvercast
10:35 AM42.8 °F37.4 °F81 %30.14 in10.0 miNW (320°)6.9 mphOvercast
10:55 AM42.8 °F37.4 °F81 %30.14 in10.0 miWest (270°)4.6 mphOvercast
11:15 AM42.8 °F35.6 °F76 %30.14 in10.0 miWNW (300°)6.9 mphOvercast
11:35 AM42.8 °F35.6 °F76 %30.13 in10.0 miNNW (330°)3.5 mphOvercast
11:55 AM44.6 °F35.6 °F71 %30.13 in10.0 miWNW (290°)3.5 mphMostly Cloudy
12:15 PM46.4 °F35.6 °F66 %30.12 in10.0 miWest (280°)3.5 mphMostly Cloudy
12:35 PM46.4 °F35.6 °F66 %30.11 in10.0 miSSW (210°)3.5 mphMostly Cloudy
12:55 PM46.4 °F35.6 °F66 %30.10 in10.0 miSW (230°)3.5 mphMostly Cloudy
1:15 PM48.2 °F35.6 °F62 %30.09 in10.0 miWest (270°)5.8 mphScattered Clouds
1:35 PM50.0 °F35.6 °F58 %30.08 in10.0 miWest (280°)5.8 mphScattered Clouds
1:55 PM50.0 °F35.6 °F58 %30.07 in10.0 miWNW (300°)3.5 mphScattered Clouds
2:15 PM51.8 °F35.6 °F54 %30.06 in10.0 miWSW (250°)3.5 mphScattered Clouds
2:35 PM51.8 °F37.4 °F58 %30.05 in10.0 miSW (220°)5.8 mphClear
2:55 PM51.8 °F35.6 °F54 %30.05 in10.0 miSW (220°)3.5 mphScattered Clouds
3:15 PM53.6 °F35.6 °F51 %30.04 in10.0 miWSW (240°)4.6 mphScattered Clouds
3:55 PM53.6 °F35.6 °F51 %30.04 in10.0 miSW (220°)5.8 mphClear
4:15 PM53.6 °F35.6 °F51 %30.03 in10.0 miSSW (210°)5.8 mphClear
4:35 PM51.8 °F35.6 °F54 %30.03 in10.0 miSW (220°)3.5 mphClear
4:55 PM51.8 °F35.6 °F54 %30.03 in10.0 miSW (230°)4.6 mphClear
5:15 PM51.8 °F35.6 °F54 %30.03 in10.0 miWSW (240°)5.8 mphClear
5:35 PM51.8 °F35.6 °F54 %30.03 in10.0 miSW (230°)3.5 mphClear
5:55 PM50.0 °F35.6 °F58 %30.03 in10.0 miSW (220°)3.5 mphClear
6:15 PM48.2 °F35.6 °F62 %30.03 in10.0 miCalmClear
6:35 PM46.4 °F35.6 °F66 %30.03 in10.0 miCalmClear
6:55 PM46.4 °F35.6 °F66 %30.03 in10.0 miCalmClear
7:15 PM46.4 °F35.6 °F66 %30.04 in10.0 miCalmClear
7:35 PM44.6 °F35.6 °F71 %30.04 in10.0 miCalmClear
7:55 PM42.8 °F35.6 °F76 %30.04 in10.0 miCalmClear
8:15 PM42.8 °F35.6 °F76 %30.04 in10.0 miCalmClear
8:35 PM42.8 °F35.6 °F76 %30.04 in10.0 miSouth (170°)3.5 mphClear
8:55 PM42.8 °F35.6 °F76 %30.05 in10.0 miCalmClear
9:15 PM41.0 °F35.6 °F81 %30.05 in10.0 miSSE (160°)3.5 mphClear
9:35 PM41.0 °F35.6 °F81 %30.06 in10.0 miCalmClear
9:55 PM41.0 °F35.6 °F81 %30.06 in10.0 miCalmClear
10:15 PM41.0 °F35.6 °F81 %30.06 in10.0 miCalmClear
10:35 PM41.0 °F35.6 °F81 %30.06 in10.0 miCalmClear
10:55 PM39.2 °F33.8 °F81 %30.06 in10.0 miCalmClear
11:15 PM39.2 °F35.6 °F87 %30.06 in10.0 miCalmClear
11:35 PM37.4 °F35.6 °F93 %30.06 in10.0 miCalmClear
11:55 PM37.4 °F35.6 °F93 %30.06 in10.0 miCalmClear
Hourly data recorded from KLBR, located miles away from Clarksville, Texas







STORIES FROM OUR PARTNERS